GW6954 Weather Reports


time (UTC)temp
F
wind
direction
speed
knots
gust
knots
rain 1hr
in
rain 24hr
in
rain mn
in
humidity
%
barometer
mb
20260507064558 34 242 0.9 6.1 0.01 0.06 0.06 91 1014.2
20260507064057 34 269 0.9 6.1 0.01 0.06 0.06 91 1014.1
20260507063554 34 0 0.0 2.6 0.01 0.06 0.06 92 1014.2
20260507063054 34 0 0.0 2.6 0.01 0.06 0.06 92 1014.0
20260507062553 34 96 0.9 4.3 0.01 0.06 0.06 92 1014.1
20260507062055 34 142 0.0 4.3 0.01 0.06 0.06 92 1014.0
20260507061558 34 94 0.9 4.3 0.01 0.06 0.06 92 1014.1
20260507061056 34 144 0.0 3.5 0.00 0.05 0.05 92 1014.0
20260507060556 34 202 0.0 3.5 0.00 0.05 0.05 92 1014.1
20260507060059 34 263 0.0 3.5 0.00 0.05 0.05 92 1014.0
20260507055552 34 207 0.0 3.5 0.00 0.05 0.05 91 1013.8
20260507055051 34 243 0.0 3.5 0.01 0.05 0.05 91 1013.9
20260507054554 34 0 0.9 3.5 0.01 0.05 0.05 91 1013.9
20260507054053 34 185 0.0 5.2 0.01 0.05 0.05 91 1013.7
20260507053553 34 0 0.0 5.2 0.01 0.05 0.05 90 1013.7
20260507053116 34 285 0.9 3.5 0.01 0.05 0.05 89 1013.7
20260507052553 34 0 1.7 3.5 0.02 0.05 0.05 89 1013.6
20260507052053 34 355 0.0 3.5 0.02 0.05 0.05 91 1013.6
20260507051557 34 69 0.0 3.5 0.03 0.05 0.05 91 1013.6
20260507051052 34 92 0.9 3.5 0.04 0.05 0.05 91 1013.7
20260507050552 34 0 0.0 3.5 0.04 0.05 0.05 92 1013.6
20260507050054 34 0 0.9 3.5 0.04 0.05 0.05 92 1013.7
20260507045553 34 77 0.9 3.5 0.05 0.05 0.05 93 1013.6
20260507045052 33 84 0.9 2.6 0.04 0.04 0.04 93 1013.7
20260507044610 33 67 0.9 2.6 0.04 0.04 0.04 94 1013.7
20260507044056 33 0 0.0 3.5 0.04 0.04 0.04 94 1013.7
20260507043553 33 164 0.9 4.3 0.04 0.04 0.04 93 1013.7
20260507043056 33 150 1.7 4.3 0.04 0.04 0.04 93 1013.7
20260507042552 33 152 0.9 4.3 0.03 0.03 0.03 93 1013.7
20260507042051 34 261 1.7 9.6 0.03 0.03 0.03 93 1013.7
20260507041555 34 252 2.6 9.6 0.02 0.02 0.02 93 1013.7
20260507041052 34 230 4.3 11.3 0.01 0.01 0.01 93 1013.6
20260507040553 35 284 4.3 13.0 0.01 0.01 0.01 92 1013.6
20260507035552 36 331 5.2 9.6 0.00 0.00 0.00 89 1013.5
20260507035053 36 248 2.6 8.7 0.00 0.00 0.00 88 1013.4
20260507034602 37 271 0.9 7.8 0.00 0.00 0.00 87 1013.3
20260507034052 37 290 2.6 7.8 0.00 0.00 0.00 82 1013.4
20260507033552 37 0 1.7 7.0 0.00 0.00 0.00 82 1013.1
20260507033110 38 124 1.7 7.0 0.00 0.00 0.00 81 1013.0
20260507032554 38 151 3.5 7.8 0.00 0.00 0.00 80 1013.0
20260507032053 38 157 2.6 7.8 0.00 0.00 0.00 79 1012.8
20260507031601 37 131 1.7 6.1 0.00 0.00 0.00 82 1012.9
20260507031053 38 266 1.7 3.5 0.00 0.00 0.00 85 1012.8
20260507030553 38 265 1.7 6.1 0.00 0.00 0.00 85 1012.8
20260507030108 38 254 1.7 6.1 0.00 0.00 0.00 83 1012.8
20260507025551 38 298 0.9 5.2 0.00 0.00 0.00 82 1012.8
20260507025052 38 246 1.7 5.2 0.00 0.00 0.00 83 1012.8
20260507024610 38 255 2.6 5.2 0.00 0.00 0.00 82 1012.7
20260507024052 39 279 1.7 5.2 0.00 0.00 0.00 83 1012.7
20260507023553 39 217 1.7 5.2 0.00 0.00 0.00 82 1012.7
20260507023056 39 238 1.7 6.1 0.00 0.00 0.00 81 1012.7
20260507022553 39 274 0.9 6.1 0.00 0.00 0.00 78 1012.5
20260507022054 39 254 2.6 6.1 0.00 0.00 0.00 78 1012.7
20260507021557 39 268 0.9 3.5 0.00 0.00 0.00 84 1012.5
20260507021055 39 278 1.7 4.3 0.00 0.00 0.00 83 1012.4
20260507020554 40 0 1.7 6.1 0.00 0.00 0.00 82 1012.4
20260507020101 40 265 1.7 6.1 0.00 0.00 0.00 81 1012.5
20260507015553 40 286 0.9 5.2 0.00 0.00 0.00 75 1012.4
20260507015055 40 173 0.9 5.2 0.00 0.00 0.00 74 1012.5
20260507014559 39 169 1.7 5.2 0.00 0.00 0.00 78 1012.4
20260507014052 39 160 0.0 3.5 0.00 0.00 0.00 83 1012.4
20260507013556 38 267 0.9 3.5 0.00 0.00 0.00 84 1012.4
20260507013100 38 256 0.9 3.5 0.00 0.00 0.00 84 1012.4
20260507012553 38 271 1.7 4.3 0.00 0.00 0.00 85 1012.4
20260507012053 38 242 1.7 5.2 0.00 0.00 0.00 84 1012.4
20260507011558 38 277 2.6 5.2 0.00 0.00 0.00 85 1012.4
20260507011053 37 289 0.9 5.2 0.00 0.00 0.00 86 1012.4
20260507010554 37 290 1.7 5.2 0.00 0.00 0.00 87 1012.4
20260507010054 38 265 2.6 7.8 0.00 0.00 0.00 86 1012.5
20260507005552 38 273 3.5 7.8 0.00 0.00 0.00 85 1012.4
20260507005054 38 287 3.5 7.8 0.00 0.00 0.00 86 1012.4
20260507004554 38 290 3.5 7.8 0.00 0.00 0.00 86 1012.3
20260507004053 38 274 4.3 7.8 0.00 0.00 0.00 85 1012.4
20260507003552 38 284 2.6 6.1 0.00 0.00 0.00 85 1012.2
20260507003101 38 263 2.6 7.8 0.00 0.00 0.00 86 1012.2
20260507002556 38 289 3.5 7.8 0.00 0.00 0.00 86 1012.2
20260507002052 38 269 1.7 8.7 0.00 0.00 0.00 86 1012.2
20260507001602 38 276 3.5 8.7 0.00 0.00 0.00 86 1012.1
20260507001054 38 274 4.3 7.0 0.00 0.00 0.00 85 1012.2
20260507000554 39 258 1.7 7.0 0.00 0.00 0.00 84 1012.2
20260507000101 39 283 3.5 7.8 0.00 0.00 0.00 83 1012.1
20260506235553 39 254 4.3 9.6 0.00 0.00 0.00 83 1012.1
20260506235051 39 282 4.3 9.6 0.00 0.00 0.00 82 1012.0
20260506234608 39 285 5.2 8.7 0.00 0.00 0.00 82 1011.9
20260506234056 40 319 5.2 9.6 0.00 0.00 0.00 80 1011.9
20260506233553 40 268 5.2 9.6 0.00 0.00 0.00 80 1011.8
20260506233057 39 294 6.1 9.6 0.00 0.00 0.00 80 1011.8
20260506232552 39 294 6.1 13.0 0.00 0.00 0.00 78 1011.8
20260506232055 39 276 5.2 13.0 0.00 0.00 0.00 76 1011.8
20260506231556 39 287 7.0 13.0 0.00 0.00 0.00 77 1011.7
20260506231054 39 270 7.0 12.2 0.00 0.00 0.00 78 1011.8
20260506230554 39 292 7.0 12.2 0.00 0.00 0.00 78 1011.7
20260506230104 40 294 5.2 10.4 0.00 0.00 0.00 77 1011.8
20260506225555 39 279 6.1 10.4 0.00 0.00 0.00 77 1011.8
20260506225055 39 281 5.2 9.6 0.00 0.00 0.00 77 1011.7
20260506224554 39 222 5.2 7.8 0.00 0.00 0.00 77 1011.7
20260506224055 39 269 3.5 7.8 0.00 0.00 0.00 78 1011.7
20260506223552 39 274 2.6 6.1 0.00 0.00 0.00 78 1011.6
20260506223057 39 269 2.6 6.1 0.00 0.00 0.00 78 1011.6
20260506222555 39 292 2.6 7.0 0.00 0.00 0.00 77 1011.6
20260506222055 40 281 3.5 7.0 0.00 0.00 0.00 76 1011.5
20260506221555 41 285 0.0 2.6 0.00 0.00 0.00 75 1011.4
20260506221052 41 43 0.0 5.2 0.00 0.00 0.00 76 1011.4
20260506220553 41 40 0.9 5.2 0.00 0.00 0.00 77 1011.4
20260506220100 41 283 0.0 4.3 0.00 0.00 0.00 77 1011.3
20260506215554 41 294 0.9 4.3 0.00 0.00 0.00 76 1011.4
20260506215052 41 0 0.0 2.6 0.00 0.00 0.00 77 1011.4
20260506214558 42 0 0.0 2.6 0.00 0.00 0.00 77 1011.3
20260506214052 41 0 0.0 2.6 0.00 0.00 0.00 77 1011.3
20260506213553 42 0 0.9 3.5 0.00 0.00 0.00 76 1011.2
20260506213053 42 0 0.0 3.5 0.00 0.00 0.00 76 1011.2
20260506212553 42 0 0.9 3.5 0.00 0.00 0.00 76 1011.1
20260506212053 42 29 0.9 5.2 0.00 0.00 0.00 75 1011.1
20260506211553 42 0 0.9 7.8 0.00 0.00 0.00 73 1011.1
20260506211053 42 271 0.9 7.8 0.00 0.00 0.00 73 1011.2
20260506210552 42 279 2.6 7.8 0.00 0.00 0.00 68 1011.0
20260506210057 42 309 1.7 6.1 0.00 0.00 0.00 67 1011.0
20260506205552 42 283 0.9 3.5 0.00 0.00 0.00 69 1010.9
20260506205052 42 298 0.0 5.2 0.00 0.00 0.00 76 1011.0
20260506204556 42 24 1.7 5.2 0.00 0.00 0.00 75 1010.9
20260506204053 43 40 0.9 6.1 0.00 0.00 0.00 73 1010.8
20260506203553 42 0 0.0 7.0 0.00 0.00 0.00 72 1010.9
20260506203055 41 79 1.7 7.0 0.00 0.00 0.00 77 1010.9
20260506202553 41 286 0.9 4.3 0.00 0.00 0.00 78 1010.7
20260506202053 41 248 0.9 3.5 0.00 0.00 0.00 78 1010.7
20260506201557 41 255 0.9 3.5 0.00 0.00 0.00 80 1010.8
20260506201054 40 299 0.9 3.5 0.00 0.00 0.00 79 1010.6
20260506200554 41 283 0.0 3.5 0.00 0.00 0.00 79 1010.5
20260506200104 40 275 0.9 3.5 0.00 0.00 0.00 80 1010.5
20260506195553 40 30 0.9 3.5 0.00 0.00 0.00 80 1010.4
20260506195053 40 17 0.0 1.7 0.00 0.00 0.00 80 1010.4
20260506194557 39 0 0.0 3.5 0.00 0.00 0.00 82 1010.3
20260506194053 39 0 0.9 5.2 0.00 0.00 0.00 82 1010.4
20260506193558 39 281 1.7 5.2 0.00 0.00 0.00 82 1010.4
20260506193108 38 26 0.0 1.7 0.00 0.00 0.00 80 1010.4
20260506192553 38 0 0.0 3.5 0.00 0.00 0.00 81 1010.4
20260506192053 38 281 0.9 6.1 0.00 0.00 0.00 81 1010.3
20260506191600 38 290 1.7 6.1 0.00 0.00 0.00 81 1010.4
20260506191054 37 293 2.6 6.1 0.00 0.00 0.00 82 1010.3
20260506190554 37 294 3.5 6.1 0.00 0.00 0.00 83 1010.3
20260506185553 38 290 0.9 5.2 0.00 0.00 0.00 83 1010.3
20260506185053 37 284 2.6 5.2 0.00 0.00 0.00 83 1010.3
20260506184555 38 281 0.0 5.2 0.00 0.00 0.00 83 1010.3
20260506184053 37 288 0.9 3.5 0.00 0.00 0.00 83 1010.2
20260506183555 37 289 0.0 3.5 0.00 0.00 0.00 83 1010.2
20260506183056 37 289 0.9 3.5 0.00 0.00 0.00 84 1010.3
20260506182552 37 284 0.0 4.3 0.00 0.00 0.00 85 1010.2
20260506182052 36 0 0.9 4.3 0.00 0.00 0.00 84 1010.1
20260506181605 36 281 0.0 3.5 0.00 0.00 0.00 85 1010.1
20260506181053 36 333 0.0 2.6 0.00 0.00 0.00 85 1010.0
20260506180555 36 290 0.9 5.2 0.00 0.00 0.00 85 1010.0
20260506180058 36 0 0.9 5.2 0.00 0.00 0.00 85 1010.1
20260506175552 36 280 0.9 4.3 0.00 0.00 0.00 85 1010.0
20260506175052 36 326 0.9 2.6 0.00 0.00 0.00 85 1009.9
20260506174555 36 285 1.7 2.6 0.00 0.00 0.00 84 1009.9
20260506174052 36 0 0.9 3.5 0.00 0.00 0.00 85 1009.9
20260506173554 35 290 1.7 3.5 0.00 0.00 0.00 85 1009.9
20260506173124 35 288 1.7 2.6 0.00 0.00 0.00 84 1009.8
20260506172551 35 294 0.9 2.6 0.00 0.00 0.00 85 1009.7
20260506172055 35 284 0.0 2.6 0.00 0.00 0.00 84 1009.7
20260506171617 35 282 0.0 2.6 0.00 0.00 0.00 84 1009.6
20260506171055 35 282 1.7 3.5 0.00 0.00 0.00 84 1009.6
20260506170552 35 282 0.9 3.5 0.00 0.00 0.00 84 1009.6
20260506170056 35 262 1.7 3.5 0.00 0.00 0.00 84 1009.6
20260506165552 35 287 0.9 3.5 0.00 0.00 0.00 84 1009.6
20260506165053 35 287 1.7 3.5 0.00 0.00 0.00 85 1009.5
20260506164601 35 0 0.9 2.6 0.00 0.00 0.00 85 1009.4
20260506164053 34 0 0.0 2.6 0.00 0.00 0.00 85 1009.4
20260506163552 34 277 1.7 3.5 0.00 0.00 0.00 84 1009.4
20260506163105 34 271 0.0 3.5 0.00 0.00 0.00 84 1009.4
20260506162552 34 271 1.7 3.5 0.00 0.00 0.00 84 1009.3
20260506162053 34 241 0.9 2.6 0.00 0.00 0.00 84 1009.3
20260506161624 34 0 0.0 1.7 0.00 0.00 0.00 84 1009.2
20260506161052 34 0 0.0 1.7 0.00 0.00 0.00 84 1009.0
20260506160554 34 187 0.0 1.7 0.00 0.00 0.00 85 1009.2
20260506160056 34 246 0.9 1.7 0.00 0.00 0.00 85 1009.2
20260506155555 33 188 0.0 1.7 0.00 0.00 0.00 85 1009.2
20260506155053 33 213 0.0 1.7 0.00 0.00 0.00 85 1009.0
20260506154600 33 0 0.0 3.5 0.00 0.00 0.00 84 1009.0
20260506154053 33 0 0.9 3.5 0.00 0.00 0.00 84 1009.0
20260506153554 34 277 0.9 3.5 0.00 0.00 0.00 83 1009.0
20260506153058 34 274 0.9 3.5 0.00 0.00 0.00 83 1009.0
20260506152552 34 261 1.7 3.5 0.00 0.00 0.00 81 1009.0
20260506152053 35 0 0.9 3.5 0.00 0.00 0.00 80 1009.0
20260506151554 35 279 0.9 2.6 0.00 0.00 0.00 79 1009.1
20260506151053 35 0 0.0 2.6 0.00 0.00 0.00 79 1008.9
20260506150554 35 0 0.9 2.6 0.00 0.00 0.00 78 1008.9
20260506150056 36 0 0.0 3.5 0.00 0.00 0.00 78 1008.9
20260506145554 36 0 0.9 3.5 0.00 0.00 0.00 77 1008.8
20260506145052 36 0 0.0 1.7 0.00 0.00 0.00 76 1008.8
20260506144554 36 0 0.0 2.6 0.00 0.00 0.00 76 1008.8
20260506144053 36 0 0.0 2.6 0.00 0.00 0.00 77 1008.8
20260506143554 36 178 0.0 6.1 0.00 0.00 0.00 77 1008.7
20260506143053 36 148 0.9 6.1 0.00 0.00 0.00 77 1008.7
20260506142553 36 270 0.9 6.1 0.00 0.00 0.00 77 1008.6
20260506142057 35 248 1.7 6.1 0.00 0.00 0.00 77 1008.6
20260506141555 35 40 0.9 4.3 0.00 0.00 0.00 78 1008.7
20260506141053 35 54 0.9 3.5 0.00 0.00 0.00 78 1008.8
20260506140554 35 48 1.7 3.5 0.00 0.00 0.00 78 1008.8
20260506140058 35 0 1.7 2.6 0.00 0.00 0.00 78 1008.8
20260506135553 35 54 0.0 3.5 0.00 0.00 0.00 77 1008.8
20260506135053 35 54 0.9 3.5 0.00 0.00 0.00 77 1008.9
20260506134557 36 60 0.9 7.0 0.00 0.00 0.00 77 1008.8
20260506134054 36 44 0.9 7.0 0.00 0.00 0.00 76 1008.8
20260506133554 36 42 1.7 5.2 0.00 0.00 0.00 76 1008.7
20260506133100 35 47 0.9 5.2 0.00 0.00 0.00 76 1008.7
20260506132554 36 88 1.7 5.2 0.00 0.00 0.00 76 1008.6
20260506132054 36 38 1.7 4.3 0.00 0.00 0.00 76 1008.7
20260506131602 36 0 0.0 4.3 0.00 0.00 0.00 76 1008.6
20260506131054 36 0 0.9 4.3 0.00 0.00 0.00 76 1008.5
20260506130554 36 30 0.9 6.1 0.00 0.00 0.00 76 1008.6
20260506130117 36 53 0.9 6.1 0.00 0.00 0.00 75 1008.5
20260506125553 36 91 0.9 6.1 0.00 0.00 0.00 75 1008.6
20260506125053 36 0 0.0 4.3 0.00 0.00 0.00 75 1008.6
20260506124600 36 0 0.0 8.7 0.00 0.00 0.00 74 1008.5
20260506124053 36 121 1.7 8.7 0.00 0.00 0.00 75 1008.5
20260506123553 36 136 1.7 8.7 0.00 0.00 0.00 75 1008.5
20260506123057 36 97 0.9 7.0 0.00 0.00 0.00 75 1008.5
20260506122554 36 139 0.9 7.0 0.00 0.00 0.00 75 1008.6
20260506122053 36 131 1.7 7.0 0.00 0.00 0.00 75 1008.5
20260506121553 36 88 1.7 5.2 0.00 0.00 0.00 74 1008.5
20260506121052 36 128 0.9 5.2 0.00 0.00 0.00 74 1008.4
20260506120552 36 122 0.9 5.2 0.00 0.00 0.00 74 1008.5
20260506120105 36 161 1.7 4.3 0.00 0.00 0.00 74 1008.4
20260506115553 36 163 1.7 7.8 0.00 0.00 0.00 74 1008.4
20260506115051 36 0 1.7 8.7 0.00 0.00 0.00 74 1008.3
20260506114556 36 114 2.6 8.7 0.00 0.00 0.00 75 1008.1
20260506114055 36 148 1.7 8.7 0.00 0.00 0.00 75 1008.2
20260506113553 36 186 2.6 7.8 0.00 0.00 0.00 75 1008.2
20260506113059 36 120 1.7 7.8 0.00 0.00 0.00 75 1008.2
20260506112555 36 96 0.9 9.6 0.00 0.00 0.00 75 1008.2
20260506112055 36 209 2.6 9.6 0.00 0.00 0.00 75 1008.2
20260506111557 36 126 3.5 9.6 0.00 0.00 0.00 74 1008.3
20260506111054 36 128 4.3 8.7 0.00 0.00 0.00 74 1008.2
20260506110552 36 128 3.5 9.6 0.00 0.00 0.00 74 1008.2
20260506105555 36 161 2.6 9.6 0.00 0.00 0.00 74 1008.1
20260506105056 36 202 3.5 9.6 0.00 0.00 0.00 74 1008.1
20260506104556 36 116 3.5 9.6 0.00 0.00 0.00 74 1008.1
20260506104052 36 227 3.5 9.6 0.00 0.00 0.00 74 1008.1
20260506103555 36 125 3.5 9.6 0.00 0.00 0.00 74 1008.1
20260506103058 36 155 2.6 7.8 0.00 0.00 0.00 74 1008.1
20260506102554 36 94 2.6 8.7 0.00 0.00 0.00 73 1008.1
20260506102054 36 180 3.5 8.7 0.00 0.00 0.00 73 1008.0
20260506101559 36 101 3.5 8.7 0.00 0.00 0.00 73 1007.9
20260506101053 36 138 1.7 7.0 0.00 0.00 0.00 73 1007.9
20260506100553 36 162 1.7 7.0 0.00 0.00 0.00 72 1007.9
20260506100114 36 74 1.7 7.8 0.00 0.00 0.00 73 1008.0
20260506095558 36 92 1.7 9.6 0.00 0.00 0.00 72 1007.9
20260506095054 36 102 4.3 9.6 0.00 0.00 0.00 73 1007.8
20260506094555 36 92 3.5 7.8 0.00 0.00 0.00 72 1007.8
20260506094053 36 210 1.7 8.7 0.00 0.00 0.00 72 1007.7
20260506093553 36 184 3.5 8.7 0.00 0.00 0.00 72 1007.6
20260506093053 36 126 3.5 11.3 0.00 0.00 0.00 73 1007.5
20260506092553 36 105 3.5 11.3 0.00 0.00 0.00 73 1007.5
20260506092053 36 92 5.2 12.2 0.00 0.00 0.00 72 1007.4
20260506091554 36 103 4.3 12.2 0.00 0.00 0.00 73 1007.4
20260506091053 36 119 5.2 10.4 0.00 0.00 0.00 73 1007.3
20260506090553 36 106 5.2 10.4 0.00 0.00 0.00 73 1007.3
20260506090053 36 113 4.3 10.4 0.00 0.00 0.00 72 1007.3
20260506085553 37 104 4.3 10.4 0.00 0.00 0.00 72 1007.3
20260506085054 37 107 4.3 10.4 0.00 0.00 0.00 72 1007.3
20260506084621 37 90 4.3 10.4 0.00 0.00 0.00 72 1007.2
20260506084054 37 117 4.3 11.3 0.00 0.00 0.00 72 1007.2
20260506083554 36 105 4.3 11.3 0.00 0.00 0.00 72 1007.1
20260506083054 36 126 5.2 11.3 0.00 0.00 0.00 72 1007.2
20260506082553 36 129 4.3 10.4 0.00 0.00 0.00 72 1007.1
20260506082053 36 123 5.2 10.4 0.00 0.00 0.00 73 1007.1
20260506081557 36 117 5.2 10.4 0.00 0.00 0.00 73 1007.1
20260506081052 36 113 5.2 11.3 0.00 0.00 0.00 73 1007.1
20260506080555 36 94 5.2 11.3 0.00 0.00 0.00 73 1007.1
20260506073055 36 139 3.5 10.4 0.00 0.00 0.00 72 1007.0
20260506072553 37 119 5.2 11.3 0.00 0.00 0.00 71 1007.0
20260506072052 37 44 4.3 12.2 0.00 0.00 0.00 71 1007.0
20260506071600 37 55 5.2 13.0 0.00 0.00 0.00 71 1006.9
20260506071055 37 90 4.3 13.0 0.00 0.00 0.00 70 1006.9
20260506070555 37 114 5.2 13.0 0.00 0.00 0.00 70 1007.0